Location: Utrecht
(52.0907°N, 5.1214°E)
Time: 16:20:01
(UTC+02:00)

MOZHAYETS 4 - Pass Details

Date: 02 July 2022
Orbit: 659 x 679 km, 98.2° (Epoch: 08 August)

Event Time Altitude Azimuth Distance (km) Brightness Sun altitude
Exits shadow 03:33:02 - 156° (SSE) 2,721 10.5 -11.1°
Reaches altitude 10° 03:34:32 10° 155° (SSE) 2,109 9.9 -11.0°
Maximum altitude 03:39:08 71° 72° (ENE) 717 8.0 -10.7°
Drops below altitude 10° 03:43:44 10° 349° (N) 2,113 11.1 -10.4°
Sets 03:45:58 0° 347° (NNW) 3,029 11.9 -10.2°
